Tracking 25963 objects as of 12-Aug-2022
HD Live streaming from Space Station
objects crossing your sky now

RESURS O1 DEB

Track RESURS O1 DEB now!
10-day predictions


NORAD ID: 49224
Int'l Code: 1994-074FC
Perigee: 584.6 km
Apogee: 586.9 km
Inclination: 97.9 °
Period: 96.2 minutes
Semi major axis: 6956 km
RCS: Unknown
Launch date: November 4, 1994
Source: Commonwealth of Independent States (former USSR) (CIS)
Launch site: TYURATAM MISSILE AND SPACE COMPLEX (TTMTR)

Note: This is SATELLITE DEBRIS
aabbcc
Your satellite tracking list
Your tracking list is empty




NASA's NSSDC Master Catalog

Two Line Element Set (TLE):
1 49224U 94074FC  22223.97281260  .00025457  00000-0  22554-2 0  9994
2 49224  97.8523 274.0174 0001594 204.3971 155.7175 14.96215018 61608
Source of the keplerian elements: AFSPC